Weather History for Shreveport Downtown, LA

Change the Weather History Date:

Thursday, October 3, 2013

  Actual Average (KSHV) Record (KSHV)
Temperature  
Mean Temperature 78 °F 71 °F  
Max Temperature 86 °F 82 °F 94 °F (1954)
Min Temperature 71 °F 59 °F 43 °F (1975)
Degree Days  
Heating Degree Days 0 1  
Month to date heating degree days 3  
Since 1 July heating degree days 9  
Cooling Degree Days 14 7  
Month to date cooling degree days 21  
Year to date cooling degree days 2346  
Growing Degree Days 28 (Base 50)    
Moisture  
Dew Point 71 °F    
Average Humidity 81    
Maximum Humidity 96    
Minimum Humidity 59    
Precipitation  
Precipitation 0.00 in 0.14 in 3.03 in (1902)
Month to date precipitation 0.42  
Year to date precipitation 37.57  
Snow  
Snow 0.00 in - - ()
Month to date snowfall  
Since 1 July snowfall  
Since 1 September snowfall  
Snow Depth -    
Sea Level Pressure  
Sea Level Pressure 29.95 in    
Wind  
Wind Speed 5 mph (SE)    
Max Wind Speed 12 mph    
Max Gust Speed -    
Visibility 10 miles    
Events      
T = Trace of Precipitation, MM = Missing Value Source: NWS Daily Summary

Daily Weather History Graph

Daily Weather History Graph

Search for Another Location

Airport:

Trip Planner

Search our weather history database for the weather conditions in past years. The results will help you decide how hot, cold, wet, or windy it might be!

Date:

Astronomy

Oct. 03, 2013 Rise Set
Actual Time 7:10 AM CDT 6:56 PM CDT
Civil Twilight 6:46 AM CDT 7:21 PM CDT
Nautical Twilight 6:17 AM CDT 7:49 PM CDT
Astronomical Twilight 5:48 AM CDT 8:18 PM CDT
Moon 5:47 AM CDT (10/3) 6:04 PM CDT (10/3)
Length of Visible Light 12h 35m
Length of Day
11h 46m
Waning Crescent, 2% of the Moon is Illuminated
Oct 3
Waning Crescent
Oct 4
New
Oct 11
First Quarter
Oct 18
Full
Oct 26
Last Quarter

Hourly Weather History & Observations

Time (CDT) Temp. Heat Index Dew Point Humidity Pressure Visibility Wind Dir Wind Speed Gust Speed Precip Events Conditions
12:53 AM 73.0 °F - 69.1 °F 87% 29.95 in 10.0 mi SE 4.6 mph - N/A   Mostly Cloudy
1:53 AM 73.0 °F - 70.0 °F 90% 29.95 in 10.0 mi SE 4.6 mph - N/A   Scattered Clouds
2:53 AM 73.0 °F - 70.0 °F 90% 29.94 in 10.0 mi SSE 5.8 mph - N/A   Scattered Clouds
3:53 AM 72.0 °F - 70.0 °F 93% 29.94 in 10.0 mi SE 4.6 mph - N/A   Clear
4:53 AM 72.0 °F - 70.0 °F 93% 29.94 in 10.0 mi SE 4.6 mph - N/A   Clear
5:45 AM 71.6 °F - 69.8 °F 94% 29.95 in 10.0 mi SSE 3.5 mph - N/A   Mostly Cloudy
5:53 AM 72.0 °F - 70.0 °F 93% 29.95 in 10.0 mi SSE 3.5 mph - N/A   Mostly Cloudy
6:16 AM 71.6 °F - 69.8 °F 94% 29.96 in 10.0 mi Calm Calm - N/A   Scattered Clouds
6:53 AM 71.1 °F - 70.0 °F 96% 29.96 in 9.0 mi Calm Calm - N/A   Clear
7:53 AM 72.0 °F - 70.0 °F 93% 29.97 in 6.0 mi East 3.5 mph - N/A   Partly Cloudy
8:19 AM 73.4 °F - 71.6 °F 94% 29.98 in 7.0 mi Calm Calm - N/A   Scattered Clouds
8:32 AM 73.4 °F - 71.6 °F 94% 29.98 in 8.0 mi SSE 4.6 mph - N/A   Mostly Cloudy
8:53 AM 73.9 °F - 71.1 °F 91% 29.98 in 10.0 mi SSE 5.8 mph - N/A   Mostly Cloudy
9:01 AM 73.4 °F - 71.6 °F 94% 29.99 in 10.0 mi SSE 6.9 mph - N/A   Mostly Cloudy
9:53 AM 77.0 °F - 72.0 °F 84% 29.99 in 10.0 mi SSE 6.9 mph - N/A   Mostly Cloudy
10:31 AM 78.8 °F - 71.6 °F 78% 29.99 in 10.0 mi South 9.2 mph - N/A   Overcast
10:53 AM 81.0 °F 85.8 °F 73.0 °F 77% 29.99 in 10.0 mi SE 10.4 mph - N/A   Overcast
11:05 AM 78.8 °F - 71.6 °F 78% 30.00 in 10.0 mi SSE 10.4 mph - N/A   Mostly Cloudy
11:53 AM 79.0 °F - 71.1 °F 77% 29.99 in 10.0 mi SE 4.6 mph - N/A   Mostly Cloudy
12:28 PM 82.4 °F 87.2 °F 71.6 °F 70% 29.98 in 10.0 mi SE 8.1 mph - N/A   Scattered Clouds
12:53 PM 82.9 °F 88.0 °F 72.0 °F 69% 29.97 in 10.0 mi SE 11.5 mph - N/A   Partly Cloudy
1:53 PM 84.0 °F 89.0 °F 71.1 °F 65% 29.94 in 10.0 mi ESE 9.2 mph - N/A   Scattered Clouds
2:53 PM 84.9 °F 90.1 °F 71.1 °F 63% 29.92 in 10.0 mi SSE 8.1 mph - N/A   Clear
3:53 PM 84.0 °F 88.4 °F 70.0 °F 63% 29.91 in 10.0 mi ESE 8.1 mph - N/A   Scattered Clouds
4:53 PM 86.0 °F 90.7 °F 70.0 °F 59% 29.89 in 10.0 mi SE 10.4 mph - N/A   Partly Cloudy
5:53 PM 84.0 °F 87.8 °F 69.1 °F 61% 29.89 in 10.0 mi SE 10.4 mph - N/A   Clear
6:53 PM 82.0 °F 85.5 °F 69.1 °F 65% 29.89 in 10.0 mi SE 9.2 mph - N/A   Clear
7:53 PM 78.1 °F - 70.0 °F 76% 29.90 in 10.0 mi ESE 3.5 mph - N/A   Clear
8:53 PM 79.0 °F - 70.0 °F 74% 29.91 in 10.0 mi SE 5.8 mph - N/A   Clear
9:53 PM 77.0 °F - 70.0 °F 79% 29.93 in 10.0 mi SE 6.9 mph - N/A   Scattered Clouds
11:53 PM 75.0 °F - 70.0 °F 84% 29.94 in 10.0 mi SE 4.6 mph - N/A   Clear